Location: Aldenham
(51.6667°N, 0.3500°W)
Time: 16:54:44
(UTC+00:00)

Cosmos 1763 Rocket - Pass Details

Date: 18 November 2025
Orbit: 728 x 774 km, 74.0° (Epoch: 10 December)

Event Time Altitude Azimuth Distance (km) Brightness Sun altitude
Rises 16:44:08 0° 336° (NNW) 3,246 6.8 -5.9°
Reaches altitude 10° 16:46:35 10° 341° (NNW) 2,310 6.0 -6.2°
Maximum altitude 16:51:45 58° 60° (ENE) 879 3.5 -7.0°
Drops below altitude 10° 16:56:49 10° 140° (SE) 2,265 5.8 -7.7°
Sets 16:59:11 0° 144° (SE) 3,177 6.6 -8.1°
